Weather Roundup
Issued by NWS Corpus Christi, TX

Home | Current Version | Previous Version | Text Only | Print | Product List | Glossary On
Versions: 1 2 3 4 5 6 7 8 9 10 11 12 13 14 15 16 17 18 19 20 21 22 23 24 25 26 27 28 29 30 31 32 33 34 35 36 37 38 39 40 41 42 43 44 45 46 47 48 49 50
000
ASUS44 KCRP 231210
HRRCRP

SOUTH TEXAS REGIONAL WEATHER ROUNDUP
NATIONAL WEATHER SERVICE CORPUS CHRISTI TX
700 AM CDT SUN JUL 23 2017


TXZ229>244-231300-
...CORPUS CHRISTI AREA OBSERVATIONS...

CITY           SKY/WX    TMP DP  RH WIND       PRES   REMARKS
CORPUS CHRISTI CLOUDY    80  77  90 S12       29.90R
NAS CORPUS CHR CLOUDY    84  78  82 S12G22    29.90R HX  95
ROCKPORT       CLOUDY    83  75  77 S8        29.90R HX  90
KINGSVILLE NAS CLOUDY    80  79  96 S12       29.91R
ALICE          CLOUDY    78  75  90 S10       29.89S
ORANGE GROVE   NOT AVBL
FALFURRIAS     CLOUDY    77  75  94 SE5       29.90S
$$

...VICTORIA AREA OBSERVATIONS...

CITY           SKY/WX    TMP DP  RH WIND       PRES   REMARKS
VICTORIA       CLOUDY    78  75  90 S5        29.91S
BEEVILLE       FAIR     N/A N/A N/A S7        29.91S
PLEASANTON     CLEAR     76  72  87 CALM      29.92R
SAN ANTONIO    PTCLDY    77  72  84 S9        29.94R
$$

...LAREDO AREA OBSERVATIONS...

CITY           SKY/WX    TMP DP  RH WIND       PRES   REMARKS
LAREDO         CLEAR     79  71  76 SE10        N/A
COTULLA        CLEAR     78  71  79 SE7       29.90R
DEL RIO        CLEAR     79  71  76 E7        29.89R
MCALLEN        PTCLDY    81  75  82 SE13      29.90R
HEBBRONVILLE   MOCLDY    74  72  92 S6        29.92R FOG
$$

...OTHER TEXAS OBSERVATIONS...

CITY           SKY/WX    TMP DP  RH WIND       PRES   REMARKS
BROWNSVILLE    MOCLDY    79  76  90 SE12      29.91S
HOUSTON        CLOUDY    79  76  90 CALM      29.93R
COL. STATION   CLEAR     78  76  93 S5        29.93R
AUSTIN         PTCLDY    76  74  93 S5        29.93R
WACO           CLEAR     79  74  84 S10       29.90R
FORT WORTH     MOCLDY    81  73  76 S12       29.88R
WICHITA FALLS  PTCLDY    78  67  68 W6        29.87R
LUBBOCK        MOCLDY    71  64  78 W5        30.02S
EL PASO        CLOUDY    72  67  84 CALM      30.06R
$$

...MARINE OBSERVATIONS...

STATION/POSITION TIME  SKY/WX   TEMP    WIND        PRES    VSBY  WAVE   SWELL
                                AIR SEA DIR/SP/G                  HT/PER HT/PER
                 (UTC)          (F)     (DEG/KT/KT) (MB)    (MI)  (FT/S) (FT/S)
PORT ARANSAS     1100            84 85  160/ 24/ 27 1012.2R
BUOY 90 E PORT A 1150            85 86  190/ 17/ 21 1013.1R         4/ 5
BUOY 45 SE BAFFI 1150            84     170/ 17/ 23 1012.0R         5/ 6
BUOY 200 E PT IS 1150            85 87  190/ 12/ 14 1014.8R         3/ 5
BUOY 15 E GALVES 1050            86 87  220/ 16/ 17 1013.0          3/ 4
$$



USA.gov is the U.S. government's official web portal to all federal, state and local government web resources and services.